Change the Weather History Date:

Sunday, February 8, 2015

  Actual Average Record
Temperature  
Mean Temperature 64 °F -  
Max Temperature 73 °F 62 °F 81 °F (2008)
Min Temperature 55 °F 44 °F 33 °F (2003)
Degree Days  
Heating Degree Days 1    
Growing Degree Days 14 (Base 50)    
Moisture  
Dew Point 56 °F    
Average Humidity 85    
Maximum Humidity 97    
Minimum Humidity 53    
Precipitation  
Precipitation 0.00 in - - ()
Sea Level Pressure  
Sea Level Pressure 29.92 in    
Wind  
Wind Speed 7 mph (SW)    
Max Wind Speed 13 mph    
Max Gust Speed -    
Visibility 6 miles    
Events      
Averages and records for this station are not official NWS values.
T = Trace of Precipitation, MM = Missing Value Source: NWS Daily Summary

Daily Weather History Graph

Daily Weather History Graph

Search for Another Location

Airport or City:

Trip Planner

Search our weather history database for the weather conditions in past years. The results will help you decide how hot, cold, wet, or windy it might be!

Date:

Astronomy

Feb. 08, 2015 Rise Set
Actual Time 7:18 AM CST 6:17 PM CST
Civil Twilight 6:54 AM CST 6:42 PM CST
Nautical Twilight 6:25 AM CST 7:10 PM CST
Astronomical Twilight 5:58 AM CST 7:38 PM CST
Moon 10:34 PM CST (2/8) 9:47 AM CST (2/8)
Length of Visible Light 11h 48m
Length of Day
10h 59m
Waning Gibbous, 81% of the Moon is Illuminated
Feb 8
Waning Gibbous
Feb 11
Last Quarter
Feb 18
New
Feb 25
First Quarter
Mar 5
Full

Hourly Weather History & Observations

Time (CST) Temp. Dew Point Humidity Pressure Visibility Wind Dir Wind Speed Gust Speed Precip Events Conditions
12:16 AM 55.0 °F 53.1 °F 93% 30.00 in 8.0 mi South 5.8 mph - N/A   Mostly Cloudy
12:53 AM 57.0 °F 55.0 °F 93% 29.98 in 8.0 mi South 5.8 mph - N/A   Overcast
1:37 AM 57.0 °F 55.0 °F 93% 29.98 in 8.0 mi SSW 8.1 mph - N/A   Scattered Clouds
1:53 AM 55.9 °F 55.0 °F 97% 29.96 in 7.0 mi SSW 5.8 mph - N/A   Partly Cloudy
2:53 AM 55.0 °F 54.0 °F 96% 29.94 in 6.0 mi SSW 4.6 mph - N/A   Mostly Cloudy
3:38 AM 57.0 °F 55.0 °F 93% 29.95 in 5.0 mi SW 4.6 mph - N/A   Overcast
3:53 AM 57.0 °F 55.9 °F 96% 29.93 in 5.0 mi SW 4.6 mph - N/A   Overcast
4:21 AM 57.0 °F 55.9 °F 96% 29.94 in 5.0 mi SSW 6.9 mph - N/A   Overcast
4:53 AM 57.0 °F 55.9 °F 96% 29.93 in 5.0 mi SSW 5.8 mph - N/A   Overcast
5:24 AM 57.0 °F 55.9 °F 96% 29.93 in 3.0 mi SSW 5.8 mph - N/A   Overcast
5:34 AM 57.0 °F 55.9 °F 96% 29.93 in 2.5 mi South 5.8 mph - N/A   Overcast
5:53 AM 57.0 °F 55.9 °F 96% 29.92 in 1.5 mi SSW 9.2 mph - N/A   Overcast
6:05 AM 57.0 °F 55.9 °F 96% 29.93 in 2.0 mi SSW 6.9 mph - N/A   Overcast
6:27 AM 57.0 °F 55.9 °F 96% 29.94 in 4.0 mi SSW 8.1 mph - N/A   Overcast
6:41 AM 57.0 °F 55.9 °F 96% 29.94 in 1.8 mi SSW 4.6 mph - N/A   Overcast
6:53 AM 57.0 °F 55.9 °F 96% 29.94 in 1.8 mi SW 8.1 mph - N/A   Overcast
7:00 AM 57.0 °F 55.9 °F 96% 29.94 in 2.0 mi SSW 8.1 mph - N/A   Overcast
7:26 AM 57.0 °F 55.9 °F 96% 29.94 in 1.2 mi SSW 4.6 mph - N/A   Overcast
7:42 AM 57.0 °F 55.9 °F 96% 29.94 in 0.8 mi SW 5.8 mph - N/A   Overcast
7:53 AM 57.0 °F 55.9 °F 96% 29.94 in 1.0 mi SSW 8.1 mph - N/A   Overcast
8:53 AM 57.9 °F 57.0 °F 97% 29.95 in 1.5 mi SW 6.9 mph - N/A   Overcast
9:17 AM 57.9 °F 57.0 °F 97% 29.95 in 2.5 mi SW 10.4 mph - N/A   Overcast
9:25 AM 59.0 °F 57.0 °F 93% 29.95 in 3.0 mi SW 8.1 mph - N/A   Overcast
9:35 AM 59.0 °F 57.9 °F 96% 29.95 in 3.0 mi SSW 8.1 mph - N/A   Overcast
9:53 AM 59.0 °F 57.9 °F 96% 29.95 in 3.0 mi SW 5.8 mph - N/A   Overcast
10:13 AM 60.1 °F 57.9 °F 93% 29.95 in 5.0 mi SW 9.2 mph - N/A   Overcast
10:53 AM 61.0 °F 57.9 °F 90% 29.94 in 6.0 mi SW 11.5 mph - N/A   Overcast
11:40 AM 63.0 °F 57.0 °F 81% 29.93 in 10.0 mi SW 12.7 mph - N/A   Overcast
11:53 AM 64.0 °F 57.0 °F 78% 29.92 in 10.0 mi WSW 10.4 mph - N/A   Overcast
12:32 PM 68.0 °F 57.9 °F 70% 29.90 in 10.0 mi SW 8.1 mph - N/A   Mostly Cloudy
12:51 PM 68.0 °F 57.2 °F 68% 29.89 in 10.0 mi WSW 12.7 mph - N/A   Scattered Clouds
12:53 PM 69.1 °F 57.9 °F 68% 29.87 in 10.0 mi SW 9.2 mph - N/A   Partly Cloudy
1:53 PM 71.1 °F 57.9 °F 63% 29.83 in 10.0 mi SW 9.2 mph - N/A   Clear
2:53 PM 73.9 °F 57.9 °F 57% 29.79 in 10.0 mi SSW 9.2 mph - N/A   Clear
3:53 PM 73.9 °F 57.0 °F 55% 29.80 in 10.0 mi Variable 5.8 mph - N/A   Clear
3:56 PM 73.9 °F 55.9 °F 53% 29.81 in 10.0 mi West 11.5 mph - N/A   Clear
4:53 PM 73.9 °F 55.9 °F 53% 29.80 in 10.0 mi West 5.8 mph - N/A   Clear
5:53 PM 72.0 °F 55.9 °F 57% 29.83 in 10.0 mi West 3.5 mph - N/A   Clear
6:53 PM 64.9 °F 55.0 °F 70% 29.85 in 10.0 mi Calm Calm - N/A   Clear
7:53 PM 61.0 °F 55.0 °F 81% 29.89 in 10.0 mi WNW 3.5 mph - N/A   Clear
8:53 PM 60.1 °F 54.0 °F 80% 29.91 in 10.0 mi Calm Calm - N/A   Clear
9:53 PM 55.9 °F 52.0 °F 87% 29.94 in 7.0 mi NW 4.6 mph - N/A   Clear
10:53 PM 62.1 °F 51.1 °F 67% 29.94 in 10.0 mi North 9.2 mph - N/A   Clear
11:53 PM 61.0 °F 46.9 °F 60% 29.95 in 10.0 mi North 5.8 mph - N/A   Clear